Weather History for Alliance, NE

Change the Weather History Date:

Tuesday, July 29, 2014

  Actual Average Record
Temperature  
Mean Temperature 70 °F 73 °F  
Max Temperature 83 °F 89 °F 102 °F (1980)
Min Temperature 57 °F 57 °F 44 °F (1971)
Degree Days  
Heating Degree Days 0 0  
Month to date heating degree days 27 5  
Since 1 June heating degree days 126 98  
Since 1 July heating degree days 27 5  
Cooling Degree Days 5 9  
Month to date cooling degree days 215 220  
Year to date cooling degree days 265 318  
Since 1 June cooling degree days 251 308  
Growing Degree Days 19 (Base 50)    
Moisture  
Dew Point 56 °F    
Average Humidity 68    
Maximum Humidity 93    
Minimum Humidity 42    
Precipitation  
Precipitation T in 0.07 in 1.15 in (1985)
Month to date precipitation 0.12 2.19  
Year to date precipitation 12.30 10.58  
Sea Level Pressure  
Sea Level Pressure 30.14 in    
Wind  
Wind Speed 10 mph (ESE)    
Max Wind Speed 21 mph    
Max Gust Speed 27 mph    
Visibility 9 miles    
Events      
T = Trace of Precipitation, MM = Missing Value Source: NWS Daily Summary

Daily Weather History Graph

Daily Weather History Graph

Search for Another Location

Airport:

Trip Planner

Search our weather history database for the weather conditions in past years. The results will help you decide how hot, cold, wet, or windy it might be!

Date:

Astronomy

Jul. 29, 2014 Rise Set
Actual Time 5:41 AM MDT 8:13 PM MDT
Civil Twilight 5:09 AM MDT 8:44 PM MDT
Nautical Twilight 4:29 AM MDT 9:24 PM MDT
Astronomical Twilight 3:45 AM MDT 10:09 PM MDT
Moon 8:23 AM MDT (7/29) 9:22 PM MDT (7/29)
Length of Visible Light 15h 35m
Length of Day
14h 31m
Waxing Crescent, 7% of the Moon is Illuminated
Jul 29
Waxing Crescent
Aug 3
First Quarter
Aug 10
Full
Aug 17
Last Quarter
Aug 25
New

Hourly Weather History & Observations

Time (MDT) Temp. Heat Index Dew Point Humidity Pressure Visibility Wind Dir Wind Speed Gust Speed Precip Events Conditions
12:53 AM 62.1 °F - 57.0 °F 84% 30.11 in 10.0 mi East 9.2 mph - N/A   Clear
1:53 AM 61.0 °F - 57.0 °F 87% 30.10 in 10.0 mi East 9.2 mph - N/A   Clear
2:53 AM 60.1 °F - 55.9 °F 86% 30.10 in 10.0 mi ESE 9.2 mph - N/A   Clear
3:53 AM 59.0 °F - 55.9 °F 90% 30.09 in 10.0 mi ESE 8.1 mph - N/A   Clear
4:53 AM 57.9 °F - 55.9 °F 93% 30.10 in 9.0 mi ESE 10.4 mph - N/A   Clear
5:53 AM 57.9 °F - 55.9 °F 93% 30.12 in 7.0 mi East 8.1 mph - N/A   Clear
6:17 AM 57.9 °F - 55.9 °F 93% 30.25 in 6.0 mi East 9.2 mph - N/A   Mostly Cloudy
6:35 AM 59.0 °F - 55.9 °F 90% 30.25 in 7.0 mi East 11.5 mph - N/A   Mostly Cloudy
6:42 AM 59.0 °F - 55.9 °F 90% 30.25 in 7.0 mi ESE 9.2 mph - N/A   Scattered Clouds
6:53 AM 59.0 °F - 55.9 °F 90% 30.14 in 8.0 mi ESE 11.5 mph - N/A   Partly Cloudy
7:53 AM 64.4 °F - 55.4 °F 73% 30.26 in 10.0 mi ESE 12.7 mph - N/A   Clear
8:53 AM 68.0 °F - 55.9 °F 65% 30.15 in 10.0 mi East 8.1 mph - N/A   Clear
9:53 AM 71.1 °F - 55.9 °F 59% 30.14 in 10.0 mi ESE 11.5 mph - N/A   Clear
10:53 AM 75.9 °F - 55.9 °F 50% 30.13 in 10.0 mi ESE 12.7 mph - N/A   Clear
11:53 AM 78.1 °F - 55.0 °F 45% 30.11 in 10.0 mi SE 13.8 mph 26.5 mph N/A   Clear
12:53 PM 81.0 °F 81.0 °F 57.0 °F 44% 30.10 in 10.0 mi SSE 13.8 mph 20.7 mph N/A   Clear
1:53 PM 81.0 °F 81.0 °F 57.0 °F 44% 30.09 in 10.0 mi East 6.9 mph - N/A   Mostly Cloudy
2:53 PM 80.1 °F 80.2 °F 55.9 °F 43% 30.07 in 10.0 mi ENE 13.8 mph - N/A   Mostly Cloudy
3:53 PM 79.0 °F - 53.1 °F 40% 30.06 in 10.0 mi East 18.4 mph 24.2 mph N/A   Overcast
4:53 PM 75.9 °F - 55.9 °F 50% 30.09 in 10.0 mi SE 15.0 mph - N/A   Mostly Cloudy
5:53 PM 73.0 °F - 57.9 °F 59% 30.10 in 10.0 mi ESE 11.5 mph - N/A   Overcast
6:53 PM 71.1 °F - 59.0 °F 66% 30.12 in 10.0 mi ESE 10.4 mph - N/A   Overcast
7:53 PM 68.0 °F - 60.1 °F 76% 30.10 in 10.0 mi ESE 4.6 mph - 0.00 in   Overcast
8:53 PM 69.1 °F - 53.1 °F 57% 30.11 in 10.0 mi NE 10.4 mph - N/A   Unknown
9:53 PM 66.9 °F - 54.0 °F 63% 30.14 in 10.0 mi ENE 4.6 mph - N/A   Overcast
10:53 PM 66.0 °F - 54.0 °F 65% 30.13 in 10.0 mi ENE 6.9 mph - N/A   Overcast
11:53 PM 64.4 °F - 53.6 °F 68% 30.25 in 10.0 mi East 6.9 mph - N/A   Overcast